Weather History for Bluefield, WV

Change the Weather History Date:

Monday, January 9, 2012

  Actual Average Record
Temperature  
Mean Temperature 41 °F 34 °F  
Max Temperature 45 °F 42 °F 63 °F (2008)
Min Temperature 36 °F 26 °F -8 °F (1970)
Degree Days  
Heating Degree Days 24 31  
Month to date heating degree days 255 279  
Since 1 July heating degree days 1747 2044  
Cooling Degree Days 0 0  
Month to date cooling degree days 0 0  
Year to date cooling degree days 0 0  
Moisture  
Dew Point 37 °F    
Average Humidity 73    
Maximum Humidity 92    
Minimum Humidity 54    
Precipitation  
Precipitation 0.23 in 0.10 in 0.77 in (1997)
Month to date precipitation 0.40 0.85  
Year to date precipitation 0.40 0.85  
Snow  
Snow 0.00 in - - ()
Month to date snowfall 2.3  
Since 1 July snowfall 5.5  
Snow Depth 0.00 in    
Sea Level Pressure  
Sea Level Pressure 30.08 in    
Wind  
Wind Speed 5 mph (WSW)    
Max Wind Speed 16 mph    
Max Gust Speed 25 mph    
Visibility 5 miles    
Events Fog , Rain    
T = Trace of Precipitation, MM = Missing Value Source: NWS Daily Summary

Daily Weather History Graph

Daily Weather History Graph

Search for Another Location

Airport:

Trip Planner

Search our weather history database for the weather conditions in past years. The results will help you decide how hot, cold, wet, or windy it might be!

Date:

Astronomy

Jan. 09, 2012 Rise Set
Actual Time 7:39 AM EST 5:24 PM EST
Civil Twilight 7:10 AM EST 5:53 PM EST
Nautical Twilight 6:38 AM EST 6:25 PM EST
Astronomical Twilight 6:06 AM EST 6:57 PM EST
Moon 6:08 PM EST (1/9) 7:39 AM EST (1/9)
Length of Visible Light 10h 43m
Length of Day
9h 45m
Full, 100% of the Moon is Illuminated
Jan 9
Full
Jan 16
Last Quarter
Jan 23
New
Jan 30
First Quarter
Feb 7
Full

Hourly Weather History & Observations

Time (EST) Temp. Windchill Dew Point Humidity Pressure Visibility Wind Dir Wind Speed Gust Speed Precip Events Conditions
12:52 AM 37.9 °F 35.5 °F 25.0 °F 60% 30.17 in 10.0 mi ENE 3.5 mph - N/A   Clear
1:52 AM 41.0 °F - 28.0 °F 60% 30.15 in 10.0 mi Calm Calm - N/A   Clear
2:52 AM 41.0 °F 39.0 °F 30.0 °F 65% 30.15 in 10.0 mi ESE 3.5 mph - N/A   Clear
3:52 AM 39.9 °F 37.8 °F 30.0 °F 68% 30.15 in 10.0 mi ESE 3.5 mph - N/A   Clear
4:52 AM 41.0 °F 39.0 °F 32.0 °F 70% 30.14 in 10.0 mi ESE 3.5 mph - N/A   Mostly Cloudy
5:14 AM 41.0 °F - 32.0 °F 70% 30.15 in 10.0 mi Calm Calm - N/A   Mostly Cloudy
5:52 AM 43.0 °F - 34.0 °F 71% 30.15 in 10.0 mi Calm Calm - N/A   Overcast
6:52 AM 42.1 °F - 34.0 °F 73% 30.15 in 10.0 mi Calm Calm - N/A   Overcast
7:25 AM 41.0 °F - 33.8 °F 76% 30.14 in 10.0 mi Calm Calm - 0.00 in Rain Light Rain
7:52 AM 37.9 °F - 33.1 °F 83% 30.16 in 10.0 mi Calm Calm - 0.01 in Rain Light Rain
8:52 AM 37.0 °F 33.3 °F 33.1 °F 86% 30.17 in 6.0 mi ESE 4.6 mph - 0.05 in Rain Light Rain
9:45 AM 39.2 °F 35.9 °F 35.6 °F 87% 30.15 in 10.0 mi Variable 4.6 mph - 0.01 in   Overcast
9:52 AM 39.0 °F 34.8 °F 35.1 °F 86% 30.17 in 10.0 mi ESE 5.8 mph - 0.01 in   Overcast
10:24 AM 39.2 °F 35.9 °F 35.6 °F 87% 30.15 in 10.0 mi Variable 4.6 mph - N/A   Overcast
11:10 AM 42.8 °F 38.6 °F 35.6 °F 76% 30.12 in 10.0 mi South 6.9 mph - N/A   Overcast
11:24 AM 42.8 °F 38.0 °F 35.6 °F 76% 30.11 in 10.0 mi SSE 8.1 mph - N/A   Overcast
11:52 AM 42.1 °F 37.1 °F 37.0 °F 82% 30.10 in 10.0 mi South 8.1 mph - N/A   Overcast
12:32 PM 42.8 °F 40.1 °F 37.4 °F 81% 30.06 in 7.0 mi Variable 4.6 mph - 0.03 in Rain Light Rain
12:43 PM 42.8 °F - 37.4 °F 81% 30.06 in 10.0 mi Calm Calm - 0.03 in Rain Light Rain
12:52 PM 42.1 °F 40.2 °F 37.9 °F 85% 30.07 in 9.0 mi SSE 3.5 mph - 0.03 in Rain Light Rain
1:16 PM 42.8 °F 41.1 °F 37.4 °F 81% 30.04 in 8.0 mi SSE 3.5 mph - 0.01 in Rain Light Rain
1:35 PM 42.8 °F 38.6 °F 37.4 °F 81% 30.05 in 2.5 mi NNW 6.9 mph - 0.05 in Rain Rain
1:43 PM 41.0 °F 36.4 °F 37.4 °F 87% 30.06 in 3.0 mi North 6.9 mph - 0.06 in Rain Light Rain
1:52 PM 41.0 °F 37.1 °F 37.0 °F 86% 30.06 in 2.5 mi North 5.8 mph - 0.07 in Rain Light Rain
2:02 PM 41.0 °F 37.1 °F 37.4 °F 87% 30.05 in 3.0 mi North 5.8 mph - 0.01 in Rain Light Rain
2:11 PM 39.2 °F 35.9 °F 37.4 °F 93% 30.06 in 5.0 mi North 4.6 mph - 0.01 in Rain Light Rain
2:52 PM 42.1 °F - 37.9 °F 85% 30.06 in 4.0 mi Calm Calm - 0.01 in Rain Light Rain
3:04 PM 41.0 °F - 37.4 °F 87% 30.05 in 1.8 mi Calm Calm - 0.01 in Rain Light Rain
3:07 PM 41.0 °F - 37.4 °F 87% 30.05 in 0.8 mi Calm Calm - 0.02 in Rain Light Rain
3:23 PM 41.0 °F - 37.4 °F 87% 30.05 in 1.2 mi Calm Calm - 0.02 in Rain Light Rain
3:30 PM 42.8 °F - 37.4 °F 81% 30.05 in 3.0 mi Calm Calm - 0.02 in Rain Light Rain
3:52 PM 42.1 °F - 37.9 °F 85% 30.06 in 3.0 mi Calm Calm - 0.03 in   Overcast
3:54 PM 42.8 °F - 37.4 °F 81% 30.05 in 1.0 mi Calm Calm - N/A   Overcast
4:01 PM 42.8 °F - 37.4 °F 81% 30.04 in 0.2 mi Calm Calm - 0.00 in Fog , Rain Light Rain
4:10 PM 42.8 °F - 37.4 °F 81% 30.04 in 0.5 mi Calm Calm - 0.00 in Fog , Rain Light Rain
4:45 PM 42.8 °F 41.1 °F 37.4 °F 81% 30.04 in 0.8 mi South 3.5 mph - 0.01 in Rain Light Rain
4:52 PM 41.0 °F - 37.9 °F 89% 30.05 in 0.2 mi Calm Calm - 0.01 in Fog Fog
5:07 PM 42.8 °F 39.3 °F 39.2 °F 87% 30.04 in 1.0 mi WSW 5.8 mph - N/A   Overcast
5:10 PM 42.8 °F 38.6 °F 39.2 °F 87% 30.04 in 2.0 mi WSW 6.9 mph - N/A   Overcast
5:37 PM 42.8 °F 39.3 °F 39.2 °F 87% 30.04 in 2.0 mi WSW 5.8 mph - N/A   Overcast
5:42 PM 42.8 °F 38.6 °F 39.2 °F 87% 30.04 in 1.0 mi WSW 6.9 mph - N/A   Overcast
5:50 PM 42.8 °F 39.3 °F 39.2 °F 87% 30.04 in 0.8 mi West 5.8 mph - N/A   Mist
5:52 PM 43.0 °F 39.5 °F 39.9 °F 89% 30.04 in 0.8 mi West 5.8 mph - N/A   Mist
6:52 PM 44.1 °F 39.5 °F 41.0 °F 89% 30.06 in 0.5 mi West 8.1 mph - N/A Fog Fog
7:52 PM 44.1 °F 38.1 °F 42.1 °F 93% 30.06 in 0.2 mi West 11.5 mph - N/A Fog Fog
9:52 PM 43.0 °F 36.8 °F 39.9 °F 89% 30.06 in 0.2 mi WNW 11.5 mph 20.7 mph 0.01 in Fog Fog
10:36 PM 42.8 °F 36.6 °F 39.2 °F 87% 30.05 in 1.2 mi WNW 11.5 mph 19.6 mph N/A   Overcast
10:40 PM 42.8 °F 35.8 °F 39.2 °F 87% 30.05 in 3.0 mi WNW 13.8 mph 19.6 mph N/A   Overcast
10:52 PM 43.0 °F 35.7 °F 39.9 °F 89% 30.05 in 10.0 mi West 15.0 mph 25.3 mph N/A   Overcast
11:08 PM 42.8 °F 35.4 °F 39.2 °F 87% 30.05 in 10.0 mi WNW 15.0 mph 20.7 mph N/A   Overcast
11:52 PM 39.9 °F 33.9 °F 36.0 °F 86% 30.07 in 10.0 mi WNW 9.2 mph 23.0 mph N/A   Mostly Cloudy